Location: Newark
(30.1000°N, 109.4667°E)
Time: 20:39:42
(UTC+00:00)

Vanguard 1 Rocket - Pass Details

Date: 27 February 2020
Orbit: 650 x 4226 km, 34.3° (Epoch: 09 April)

Event Time Altitude Azimuth Distance (km) Brightness Sun altitude
Rises 15:29:38 0° 228° (SW) 7,845 12.2 -60.5°
Reaches altitude 10° 15:35:49 10° 225° (SW) 6,366 11.6 -61.5°
Enters shadow 15:38:42 16° 222° (SW) 5,641 11.3 -61.9°
